Weather History for KUAO - April, 2014

Change the Weather History Date:

Sunday, April 27, 2014

  Actual Average Record
Temperature  
Mean Temperature 49 °F -  
Max Temperature 55 °F - 81 °F (2015)
Min Temperature 43 °F - 34 °F (2003)
Degree Days  
Heating Degree Days 16    
Month to date heating degree days 358  
Since 1 July heating degree days 4309  
Cooling Degree Days 0    
Month to date cooling degree days 0  
Year to date cooling degree days 0  
Moisture  
Dew Point 43 °F    
Average Humidity 80    
Maximum Humidity 100    
Minimum Humidity 59    
Precipitation  
Precipitation 0.24 in - 1.34 in (1962)
Month to date precipitation 3.47  
Year to date precipitation 18.88  
Sea Level Pressure  
Sea Level Pressure 29.96 in    
Wind  
Wind Speed 8 mph (SSW)    
Max Wind Speed 18 mph    
Max Gust Speed 26 mph    
Visibility 9 miles    
Events Rain    
T = Trace of Precipitation, MM = Missing Value Source: NWS Daily Summary

Daily Weather History Graph

Daily Weather History Graph

Search for Another Location

Airport or City:

Trip Planner

Search our weather history database for the weather conditions in past years. The results will help you decide how hot, cold, wet, or windy it might be!

Date:

Astronomy

Apr. 27, 2014 Rise Set
Actual Time 6:05 AM PDT 8:12 PM PDT
Civil Twilight 5:33 AM PDT 8:44 PM PDT
Nautical Twilight 4:54 AM PDT 9:24 PM PDT
Astronomical Twilight 4:10 AM PDT 10:08 PM PDT
Moon 5:15 AM PDT (4/27) 6:48 PM PDT (4/27)
Length of Visible Light 15h 10m
Length of Day
14h 06m
Waning Crescent, 3% of the Moon is Illuminated
Apr 27
Waning Crescent
Apr 28
New
May 6
First Quarter
May 14
Full
May 21
Last Quarter

Hourly Weather History & Observations

Time (PDT) Temp. Windchill Dew Point Humidity Pressure Visibility Wind Dir Wind Speed Gust Speed Precip Events Conditions
12:10 AM 46.0 °F 39.9 °F 44.1 °F 93% 29.76 in 4.0 mi SW 13.8 mph 19.6 mph 0.03 in Rain Rain
12:33 AM 46.0 °F 39.3 °F 44.1 °F 93% 29.76 in 9.0 mi South 16.1 mph 28.8 mph 0.06 in Rain Rain
12:53 AM 46.0 °F 41.0 °F 44.1 °F 93% 29.78 in 10.0 mi SSW 10.4 mph - 0.06 in   Overcast
2:06 AM 45.0 °F 40.6 °F 45.0 °F 100% 29.80 in 10.0 mi South 8.1 mph - N/A   Overcast
2:53 AM 46.0 °F 41.9 °F 45.0 °F 96% 29.82 in 10.0 mi SSW 8.1 mph - 0.00 in Rain Light Rain
3:53 AM 44.1 °F 39.5 °F 44.1 °F 100% 29.83 in 10.0 mi South 8.1 mph - 0.00 in   Scattered Clouds
4:53 AM 44.1 °F 38.6 °F 44.1 °F 100% 29.85 in 10.0 mi South 10.4 mph - 0.02 in   Scattered Clouds
5:53 AM 44.1 °F 39.5 °F 43.0 °F 96% 29.86 in 10.0 mi South 8.1 mph - N/A   Scattered Clouds
6:53 AM 44.1 °F 39.5 °F 43.0 °F 96% 29.88 in 10.0 mi South 8.1 mph - N/A   Mostly Cloudy
7:53 AM 44.1 °F 40.1 °F 41.0 °F 89% 29.93 in 6.0 mi WSW 6.9 mph - 0.05 in Rain Light Rain
8:53 AM 44.1 °F 39.0 °F 43.0 °F 96% 29.93 in 4.0 mi SSW 9.2 mph 17.3 mph 0.03 in Rain Rain
9:53 AM 45.0 °F 41.2 °F 44.1 °F 97% 29.95 in 10.0 mi South 6.9 mph - 0.02 in   Overcast
10:53 AM 46.9 °F - 46.0 °F 97% 29.97 in 10.0 mi SSW 6.9 mph - 0.06 in   Mostly Cloudy
11:53 AM 48.9 °F - 46.9 °F 93% 29.97 in 10.0 mi SSW 11.5 mph 18.4 mph 0.00 in Rain Light Rain
12:53 PM 48.9 °F - 46.0 °F 90% 29.98 in 10.0 mi SSW 12.7 mph 19.6 mph 0.00 in Rain Light Rain
1:53 PM 48.9 °F - 43.0 °F 80% 30.01 in 10.0 mi SW 10.4 mph 23.0 mph 0.01 in   Scattered Clouds
2:53 PM 51.1 °F - 43.0 °F 74% 30.02 in 10.0 mi SW 13.8 mph 20.7 mph 0.01 in   Partly Cloudy
3:53 PM 53.1 °F - 42.1 °F 66% 30.02 in 10.0 mi SSW 6.9 mph - N/A   Overcast
4:53 PM 53.1 °F - 41.0 °F 64% 30.03 in 10.0 mi WSW 15.0 mph 21.9 mph N/A   Scattered Clouds
5:53 PM 54.0 °F - 39.9 °F 59% 30.06 in 10.0 mi SW 10.4 mph 18.4 mph N/A   Scattered Clouds
6:53 PM 52.0 °F - 37.9 °F 59% 30.07 in 10.0 mi SW 10.4 mph 19.6 mph N/A   Mostly Cloudy
7:53 PM 50.0 °F - 39.0 °F 66% 30.10 in 10.0 mi SW 3.5 mph - N/A   Scattered Clouds
8:53 PM 48.0 °F - 39.0 °F 71% 30.13 in 10.0 mi SW 6.9 mph - N/A   Mostly Cloudy
9:53 PM 46.9 °F - 39.9 °F 77% 30.16 in 10.0 mi WSW 3.5 mph - N/A   Mostly Cloudy
11:53 PM 44.1 °F 42.5 °F 41.0 °F 89% 30.21 in 10.0 mi SSW 3.5 mph - N/A   Overcast